AAL1368 KMIA-MYGF

Flight info

Callsign AAL1368
Flight time N/A
Altitude 15000
Route FOLZZ3 PADUS DCT
Aircraft A320/M-DGVW/C

Departure

Time N/A
Airport Miami International Airport (KMIA)

Arrival

Time 2026-04-27 01:13
Airport Grand Bahama International Airport (MYGF)
Time Latitude Longitude Altitude Speed Heading
2026-04-27 00:58 26.16142 -79.71117 12081 ft 327 kts 61°
2026-04-27 00:58 26.17051 -79.68816 13265 ft 324 kts 64°
2026-04-27 00:59 26.18070 -79.66543 13968 ft 332 kts 55°
2026-04-27 00:59 26.19082 -79.64265 14867 ft 332 kts 62°
2026-04-27 00:59 26.20164 -79.61999 15663 ft 337 kts 60°
2026-04-27 00:59 26.21074 -79.59504 15962 ft 361 kts 66°
2026-04-27 01:00 26.21983 -79.56791 16046 ft 388 kts 65°
2026-04-27 01:00 26.23007 -79.53877 16024 ft 418 kts 65°
2026-04-27 01:00 26.24088 -79.50779 16225 ft 440 kts 65°
2026-04-27 01:00 26.25236 -79.47566 16670 ft 452 kts 59°
2026-04-27 01:01 26.26767 -79.44495 17275 ft 456 kts 64°
2026-04-27 01:01 26.27804 -79.41173 18244 ft 456 kts 73°
2026-04-27 01:01 26.28442 -79.37722 19172 ft 452 kts 76°
2026-04-27 01:01 26.29139 -79.34340 20264 ft 444 kts 75°
2026-04-27 01:02 26.29312 -79.31035 21183 ft 408 kts 88°
2026-04-27 01:02 26.29159 -79.28074 22384 ft 353 kts 91°
2026-04-27 01:02 26.29120 -79.25565 23509 ft 305 kts 81°
2026-04-27 01:02 26.29477 -79.23182 23125 ft 333 kts 70°
2026-04-27 01:03 26.30433 -79.20605 21985 ft 389 kts 60°
2026-04-27 01:03 26.31879 -79.17774 20671 ft 450 kts 53°
2026-04-27 01:03 26.33568 -79.14589 19436 ft 503 kts 56°
2026-04-27 01:03 26.35295 -79.11160 19201 ft 497 kts 57°
2026-04-27 01:04 26.37034 -79.07959 18904 ft 470 kts 54°
2026-04-27 01:04 26.38844 -79.05027 18347 ft 453 kts 53°
2026-04-27 01:04 26.40473 -79.01978 16928 ft 464 kts 57°
2026-04-27 01:04 26.41953 -78.99296 14829 ft 291 kts 48°
2026-04-27 01:05 26.42932 -78.97098 9515 ft 431 kts 67°
2026-04-27 01:05 26.43853 -78.94027 10530 ft 345 kts 70°
2026-04-27 01:05 26.44352 -78.92247 14323 ft 187 kts 66°
2026-04-27 01:05 26.44818 -78.90873 13841 ft 203 kts 59°
2026-04-27 01:06 26.45577 -78.89213 11161 ft 281 kts 58°
2026-04-27 01:06 26.46636 -78.87080 8931 ft 334 kts 55°
2026-04-27 01:06 26.47817 -78.84778 7033 ft 351 kts 57°
2026-04-27 01:06 26.49075 -78.82431 5235 ft 357 kts 56°
2026-04-27 01:07 26.50399 -78.80113 3836 ft 348 kts 56°
2026-04-27 01:07 26.51593 -78.77924 3201 ft 309 kts 57°
2026-04-27 01:07 26.52610 -78.76022 2627 ft 270 kts 57°
2026-04-27 01:07 26.53528 -78.74384 2043 ft 231 kts 57°
2026-04-27 01:08 26.54283 -78.72875 1064 ft 215 kts 65°
2026-04-27 01:08 26.54957 -78.71372 197 ft 204 kts 61°
2026-04-27 01:08 26.55596 -78.70121 22 ft 161 kts 61°
2026-04-27 01:08 26.56076 -78.69149 334 ft 143 kts 62°
2026-04-27 01:09 26.56614 -78.68005 442 ft 188 kts 63°
2026-04-27 01:09 26.57298 -78.66686 1003 ft 203 kts 53°
2026-04-27 01:09 26.58371 -78.65708 1984 ft 197 kts 27°
2026-04-27 01:09 26.59583 -78.64961 2568 ft 198 kts 26°
2026-04-27 01:10 26.60868 -78.64396 3126 ft 203 kts 13°
2026-04-27 01:10 26.62371 -78.63930 3124 ft 253 kts 30°
2026-04-27 01:10 26.63413 -78.62391 3213 ft 248 kts 88°
2026-04-27 01:10 26.62763 -78.60879 3125 ft 211 kts 162°
2026-04-27 01:11 26.61548 -78.61071 3385 ft 166 kts 207°
2026-04-27 01:11 26.60587 -78.61850 2918 ft 185 kts 227°
2026-04-27 01:11 26.59801 -78.63025 2323 ft 192 kts 233°
2026-04-27 01:11 26.59119 -78.64158 2127 ft 165 kts 228°
2026-04-27 01:12 26.58237 -78.65031 1310 ft 174 kts 222°
2026-04-27 01:12 26.57607 -78.66146 775 ft 170 kts 240°
2026-04-27 01:12 26.57045 -78.67254 381 ft 159 kts 234°
2026-04-27 01:12 26.56496 -78.68295 35 ft 145 kts 238°
2026-04-27 01:13 26.56057 -78.69153 17 ft 105 kts 240°
2026-04-27 01:13 26.55794 -78.69700 18 ft 55 kts 242°
2026-04-27 01:13 26.55680 -78.69914 15 ft 16 kts 237°
2026-04-27 01:13 26.55662 -78.69967 15 ft 2 kts
2026-04-27 01:14 26.55699 -78.69899 15 ft 18 kts 56°
2026-04-27 01:14 26.55779 -78.69757 15 ft 36 kts 62°
2026-04-27 01:14 26.56038 -78.69232 16 ft 116 kts 61°
2026-04-27 01:14 26.56517 -78.68247 143 ft 157 kts 60°
2026-04-27 01:15 26.57227 -78.67460 852 ft 151 kts
2026-04-27 01:15 26.58237 -78.67953 890 ft 182 kts 293°
2026-04-27 01:15 26.58555 -78.69364 1214 ft 207 kts 275°
2026-04-27 01:15 26.58661 -78.71113 1581 ft 238 kts 264°
2026-04-27 01:16 26.58390 -78.72987 2275 ft 258 kts 252°
2026-04-27 01:16 26.57799 -78.75067 2476 ft 296 kts 247°
2026-04-27 01:16 26.56919 -78.77297 2347 ft 328 kts 235°
2026-04-27 01:16 26.55236 -78.78434 3007 ft 265 kts 170°
2026-04-27 01:17 26.53892 -78.77307 2357 ft 249 kts 129°
2026-04-27 01:17 26.53047 -78.75581 1724 ft 244 kts 98°
2026-04-27 01:17 26.53490 -78.74015 1962 ft 200 kts 51°
2026-04-27 01:17 26.54296 -78.72794 1204 ft 202 kts 57°
2026-04-27 01:18 26.54987 -78.71328 167 ft 221 kts 62°
2026-04-27 01:18 26.55666 -78.69972 7 ft 165 kts 63°
2026-04-27 01:18 26.56062 -78.69112 6 ft 99 kts 62°
2026-04-27 01:18 26.56331 -78.68555 16 ft 84 kts 56°
2026-04-27 01:19 26.56765 -78.67831 18 ft 128 kts 57°
2026-04-27 01:19 26.57373 -78.67038 171 ft 131 kts
2026-04-27 01:19 26.57705 -78.67051 17 ft 52 kts 314°
2026-04-27 01:19 26.57559 -78.67205 14 ft 66 kts 231°
2026-04-27 01:20 26.57080 -78.67748 18 ft 126 kts 221°
2026-04-27 01:20 26.56498 -78.68613 273 ft 141 kts 249°
2026-04-27 01:20 26.56696 -78.69499 14 ft 86 kts 342°
2026-04-27 01:20 26.56888 -78.69627 10 ft 9 kts 318°
2026-04-27 01:21 26.56918 -78.69685 10 ft 9 kts 287°
2026-04-27 01:21 26.56928 -78.69750 9 ft 9 kts 258°
2026-04-27 01:21 26.56913 -78.69817 10 ft 10 kts 236°
2026-04-27 01:21 26.56873 -78.69879 13 ft 10 kts 233°
2026-04-27 01:22 26.56830 -78.69939 11 ft 10 kts 230°
2026-04-27 01:22 26.56784 -78.69995 12 ft 10 kts 226°
2026-04-27 01:22 26.56744 -78.70056 13 ft 10 kts 239°
2026-04-27 01:22 26.56795 -78.70229 16 ft 58 kts 309°
2026-04-27 01:23 26.57133 -78.70825 7 ft 98 kts 298°
2026-04-27 01:23 26.57250 -78.71155 9 ft 10 kts 284°
2026-04-27 01:23 26.57238 -78.71223 7 ft 10 kts 250°
2026-04-27 01:23 26.57191 -78.71278 7 ft 10 kts 220°
2026-04-27 01:24 26.57137 -78.71326 7 ft 10 kts 217°
2026-04-27 01:24 26.57082 -78.71370 7 ft 10 kts 214°
2026-04-27 01:24 26.57024 -78.71411 7 ft 10 kts 211°
2026-04-27 01:24 26.56967 -78.71455 7 ft 10 kts 217°
2026-04-27 01:25 26.56908 -78.71493 8 ft 10 kts 199°
2026-04-27 01:25 26.56741 -78.71453 12 ft 58 kts 156°
2026-04-27 01:25 26.56140 -78.71393 16 ft 115 kts 202°
2026-04-27 01:25 26.55337 -78.71897 155 ft 145 kts 225°
2026-04-27 01:26 26.55074 -78.72863 843 ft 124 kts 265°
2026-04-27 01:26 26.55228 -78.73957 954 ft 166 kts 280°
2026-04-27 01:26 26.55391 -78.75287 1158 ft 185 kts 228°
2026-04-27 01:26 26.54234 -78.75438 1125 ft 174 kts 149°
2026-04-27 01:27 26.53778 -78.74434 1320 ft 142 kts 91°
2026-04-27 01:27 26.54030 -78.73318 834 ft 165 kts 66°
2026-04-27 01:27 26.54580 -78.72191 401 ft 167 kts 60°
2026-04-27 01:27 26.55137 -78.71056 53 ft 165 kts 62°
2026-04-27 01:28 26.55622 -78.70061 19 ft 130 kts 60°
2026-04-27 01:28 26.56003 -78.69302 17 ft 89 kts 60°
2026-04-27 01:28 26.56214 -78.68880 15 ft 37 kts 59°
2026-04-27 01:28 26.56209 -78.68815 13 ft 15 kts 163°
2026-04-27 01:29 26.56095 -78.68812 15 ft 16 kts 234°
2026-04-27 01:29 26.56043 -78.68928 15 ft 17 kts 241°
2026-04-27 01:29 26.55985 -78.69052 15 ft 19 kts 244°
2026-04-27 01:29 26.55916 -78.69176 16 ft 19 kts 236°
2026-04-27 01:30 26.55850 -78.69300 17 ft 18 kts 242°
2026-04-27 01:30 26.55792 -78.69430 18 ft 19 kts 244°
2026-04-27 01:30 26.55708 -78.69529 16 ft 18 kts 221°
2026-04-27 01:30 26.55615 -78.69615 16 ft 18 kts 218°
2026-04-27 01:31 26.55495 -78.69743 16 ft 40 kts 231°
2026-04-27 01:31 26.55205 -78.70058 16 ft 76 kts 218°
2026-04-27 01:31 26.54802 -78.70536 125 ft 57 kts 82°
2026-04-27 01:31 26.54748 -78.70625 21 ft 0 kts 18°